Radiation Dose at Monitoring Post of Fukushima Daini Nuclear Power Station
Date,Time,MP-1(microSv/h),MP-2(microSv/h),MP-3(microSv/h),MP-4(microSv/h),MP-5(microSv/h),MP-6(microSv/h),MP-7(microSv/h),Wind Direction,Wind Velocity(m/s),Rain
2020/12/06,00:00,0.174,0.158,0.255,0.242,0.237,0.140,0.084,-,CALM,No
2020/12/06,00:10,0.174,0.157,0.254,0.240,0.238,0.138,0.084,west-northwest,1.1,No
2020/12/06,00:20,0.174,0.157,0.256,0.240,0.236,0.138,0.083,northwest,0.8,No
2020/12/06,00:30,0.175,0.157,0.255,0.240,0.237,0.139,0.084,northwest,1.6,No
2020/12/06,00:40,0.176,0.157,0.255,0.241,0.238,0.139,0.084,north-northwest,3.2,No
2020/12/06,00:50,0.175,0.157,0.254,0.242,0.237,0.139,0.084,northwest,4.5,No
2020/12/06,01:00,0.175,0.157,0.255,0.241,0.237,0.139,0.084,northwest,4.3,No
2020/12/06,01:10,0.175,0.156,0.254,0.241,0.238,0.139,0.084,north-northwest,5.6,No
2020/12/06,01:20,0.175,0.157,0.254,0.241,0.237,0.138,0.084,northwest,6.6,No
2020/12/06,01:30,0.175,0.157,0.255,0.242,0.236,0.139,0.084,north-northwest,7.3,No
2020/12/06,01:40,0.175,0.156,0.255,0.241,0.235,0.138,0.084,north-northwest,6.4,No
2020/12/06,01:50,0.175,0.157,0.255,0.240,0.237,0.139,0.083,north-northwest,4.6,No
2020/12/06,02:00,0.174,0.158,0.254,0.241,0.238,0.139,0.084,north,4.4,No
2020/12/06,02:10,0.173,0.156,0.254,0.241,0.237,0.139,0.084,north-northwest,4.1,No
2020/12/06,02:20,0.175,0.156,0.254,0.241,0.236,0.138,0.084,north-northwest,4.1,No
2020/12/06,02:30,0.174,0.157,0.254,0.241,0.237,0.139,0.084,north-northwest,5.4,No
2020/12/06,02:40,0.175,0.156,0.255,0.241,0.237,0.139,0.084,north-northwest,5.3,No
2020/12/06,02:50,0.173,0.157,0.255,0.241,0.237,0.139,0.084,north-northwest,5.1,No
2020/12/06,03:00,0.175,0.156,0.254,0.241,0.236,0.138,0.084,north-northwest,4.4,No
2020/12/06,03:10,0.174,0.157,0.255,0.241,0.238,0.139,0.085,north,4.3,No
2020/12/06,03:20,0.173,0.156,0.254,0.241,0.237,0.138,0.084,north-northwest,4.9,No
2020/12/06,03:30,0.174,0.156,0.254,0.241,0.237,0.139,0.084,north-northwest,6.1,No
2020/12/06,03:40,0.174,0.157,0.254,0.241,0.236,0.139,0.084,north-northwest,6.4,No
2020/12/06,03:50,0.175,0.156,0.255,0.241,0.237,0.139,0.084,northwest,5.6,No
2020/12/06,04:00,0.174,0.158,0.254,0.240,0.238,0.139,0.084,north-northwest,4.6,No
2020/12/06,04:10,0.175,0.157,0.254,0.241,0.238,0.138,0.084,northwest,3.6,No
2020/12/06,04:20,0.174,0.156,0.255,0.240,0.237,0.138,0.084,north-northwest,3.6,No
2020/12/06,04:30,0.174,0.157,0.255,0.241,0.237,0.139,0.084,north-northwest,4.5,No
2020/12/06,04:40,0.175,0.156,0.254,0.240,0.237,0.139,0.083,northwest,3.9,No
2020/12/06,04:50,0.175,0.156,0.255,0.241,0.237,0.138,0.084,northwest,5.1,No
2020/12/06,05:00,0.174,0.156,0.254,0.241,0.237,0.138,0.084,northwest,4.4,No
2020/12/06,05:10,0.174,0.157,0.255,0.240,0.237,0.139,0.084,north-northwest,4.1,No
2020/12/06,05:20,0.174,0.156,0.254,0.241,0.237,0.139,0.085,north-northwest,3.6,No
2020/12/06,05:30,0.175,0.157,0.254,0.241,0.237,0.138,0.084,north,3.5,No
2020/12/06,05:40,0.175,0.157,0.256,0.241,0.238,0.139,0.083,north-northwest,3.6,No
2020/12/06,05:50,0.175,0.157,0.255,0.241,0.238,0.140,0.084,north-northwest,3.3,No
2020/12/06,06:00,0.175,0.157,0.255,0.241,0.238,0.138,0.084,northwest,3.3,No
2020/12/06,06:10,0.174,0.156,0.254,0.241,0.236,0.140,0.084,north-northwest,3.7,No
2020/12/06,06:20,0.174,0.157,0.254,0.241,0.238,0.139,0.084,north-northwest,3.6,No
2020/12/06,06:30,0.174,0.158,0.254,0.240,0.238,0.139,0.085,north-northwest,2.6,No
2020/12/06,06:40,0.174,0.158,0.254,0.240,0.237,0.138,0.085,northwest,3.3,No
2020/12/06,06:50,0.174,0.156,0.256,0.241,0.238,0.139,0.084,northwest,3.5,No
2020/12/06,07:00,0.174,0.156,0.254,0.240,0.238,0.138,0.085,north-northwest,2.8,No
2020/12/06,07:10,0.174,0.156,0.255,0.240,0.238,0.139,0.084,north-northwest,2.7,No
2020/12/06,07:20,0.175,0.157,0.254,0.240,0.236,0.139,0.084,north-northwest,1.0,No
2020/12/06,07:30,0.175,0.156,0.255,0.241,0.238,0.138,0.084,north-northwest,1.7,No
2020/12/06,07:40,0.174,0.157,0.254,0.240,0.237,0.138,0.084,north,2.6,No
2020/12/06,07:50,0.175,0.156,0.255,0.241,0.238,0.139,0.083,north-northwest,3.1,No
2020/12/06,08:00,0.175,0.157,0.255,0.241,0.237,0.139,0.084,north-northwest,3.1,No
2020/12/06,08:10,0.174,0.156,0.255,0.240,0.237,0.139,0.083,north-northwest,3.8,No
2020/12/06,08:20,0.174,0.157,0.255,0.240,0.237,0.138,0.084,north-northwest,3.8,No
2020/12/06,08:30,0.175,0.156,0.254,0.241,0.237,0.138,0.084,north-northwest,3.5,No
2020/12/06,08:40,0.174,0.157,0.254,0.241,0.237,0.138,0.084,north-northwest,4.1,No
2020/12/06,08:50,0.174,0.157,0.255,0.240,0.237,0.139,0.084,north-northwest,2.7,No
2020/12/06,09:00,0.173,0.156,0.254,0.240,0.237,0.138,0.084,north-northwest,3.9,No
2020/12/06,09:10,0.175,0.157,0.255,0.240,0.238,0.139,0.084,north-northwest,3.2,No
2020/12/06,09:20,0.175,0.157,0.254,0.241,0.237,0.137,0.083,north,3.4,No
2020/12/06,09:30,0.175,0.157,0.253,0.239,0.237,0.138,0.084,north,4.1,No
2020/12/06,09:40,0.174,0.157,0.254,0.240,0.238,0.138,0.085,north,4.5,No
2020/12/06,09:50,0.174,0.156,0.255,0.241,0.237,0.139,0.084,north-northwest,4.1,No
2020/12/06,10:00,0.174,0.156,0.255,0.241,0.239,0.138,0.084,north-northwest,3.9,No
2020/12/06,10:10,0.176,0.156,0.253,0.241,0.238,0.138,0.084,north-northwest,3.0,No
2020/12/06,10:20,0.174,0.156,0.255,0.240,0.239,0.138,0.084,north-northwest,3.2,No
2020/12/06,10:30,0.174,0.155,0.252,0.240,0.237,0.139,0.084,north-northeast,3.1,No
2020/12/06,10:40,0.175,0.156,0.253,0.240,0.238,0.138,0.084,north,2.9,No
2020/12/06,10:50,0.174,0.157,0.256,0.241,0.237,0.139,0.084,north,3.9,No
2020/12/06,11:00,0.176,0.156,0.253,0.243,0.239,0.139,0.084,north-northwest,3.7,No
2020/12/06,11:10,0.175,0.157,0.255,0.241,0.238,0.140,0.084,north-northeast,4.4,No
2020/12/06,11:20,0.173,0.157,0.253,0.241,0.237,0.138,0.085,north-northeast,4.4,No
2020/12/06,11:30,0.175,0.157,0.253,0.242,0.238,0.138,0.085,north-northeast,4.6,No
2020/12/06,11:40,0.173,0.157,0.256,0.240,0.238,0.138,0.084,north,5.2,No
2020/12/06,11:50,0.174,0.156,0.254,0.242,0.237,0.138,0.085,north,4.5,No
2020/12/06,12:00,0.175,0.158,0.256,0.240,0.237,0.138,0.085,north-northeast,4.6,No
2020/12/06,12:10,0.174,0.155,0.253,0.241,0.239,0.138,0.084,northeast,4.7,No
2020/12/06,12:20,0.174,0.157,0.254,0.242,0.237,0.139,0.084,north-northeast,6.1,No
2020/12/06,12:30,0.174,0.157,0.254,0.241,0.238,0.139,0.084,northeast,6.0,No
2020/12/06,12:40,0.175,0.157,0.253,0.240,0.237,0.139,0.084,north-northeast,5.0,No
2020/12/06,12:50,0.174,0.158,0.255,0.242,0.240,0.139,0.084,north-northeast,4.8,No
2020/12/06,13:00,0.176,0.158,0.255,0.241,0.238,0.139,0.084,northeast,5.0,No
2020/12/06,13:10,0.174,0.157,0.256,0.242,0.241,0.139,0.084,north-northeast,4.1,No
2020/12/06,13:20,0.175,0.157,0.255,0.241,0.239,0.138,0.084,northeast,4.0,No
2020/12/06,13:30,0.174,0.156,0.254,0.241,0.239,0.139,0.083,north-northeast,4.5,No
2020/12/06,13:40,0.175,0.158,0.256,0.242,0.237,0.138,0.084,northeast,3.7,No
2020/12/06,13:50,0.174,0.156,0.254,0.241,0.239,0.139,0.085,northeast,2.9,No
2020/12/06,14:00,0.174,0.157,0.255,0.242,0.239,0.139,0.084,northeast,2.4,No
2020/12/06,14:10,0.175,0.158,0.257,0.241,0.237,0.139,0.084,northeast,2.5,No
2020/12/06,14:20,0.176,0.157,0.255,0.243,0.239,0.139,0.085,northeast,2.3,No
2020/12/06,14:30,0.175,0.157,0.255,0.240,0.236,0.140,0.084,northeast,3.1,No
2020/12/06,14:40,0.176,0.157,0.256,0.242,0.239,0.138,0.084,northeast,2.6,No
2020/12/06,14:50,0.175,0.158,0.255,0.240,0.238,0.140,0.084,northeast,2.4,No
2020/12/06,15:00,0.175,0.158,0.256,0.241,0.239,0.139,0.084,northeast,3.3,No
2020/12/06,15:10,0.175,0.157,0.255,0.242,0.239,0.139,0.084,northeast,1.9,No
2020/12/06,15:20,0.175,0.158,0.254,0.242,0.238,0.139,0.084,northeast,1.8,No
2020/12/06,15:30,0.174,0.157,0.256,0.241,0.239,0.140,0.084,northeast,1.9,No
2020/12/06,15:40,0.176,0.156,0.255,0.243,0.238,0.139,0.084,northeast,1.8,No
2020/12/06,15:50,0.174,0.157,0.254,0.242,0.239,0.139,0.084,north-northeast,2.0,No
2020/12/06,16:00,0.176,0.157,0.255,0.244,0.239,0.139,0.084,-,CALM,No
2020/12/06,16:10,0.175,0.158,0.257,0.242,0.238,0.140,0.084,-,CALM,No
2020/12/06,16:20,0.175,0.157,0.255,0.242,0.239,0.138,0.085,north-northwest,0.9,No
2020/12/06,16:30,0.175,0.157,0.256,0.243,0.237,0.139,0.084,northwest,0.6,No
2020/12/06,16:40,0.176,0.156,0.256,0.243,0.238,0.139,0.084,north-northwest,0.7,No
2020/12/06,16:50,0.176,0.158,0.256,0.242,0.238,0.139,0.084,-,CALM,No
2020/12/06,17:00,0.175,0.157,0.255,0.241,0.239,0.139,0.084,-,CALM,No
2020/12/06,17:10,0.175,0.157,0.255,0.242,0.237,0.140,0.085,-,CALM,No
2020/12/06,17:20,0.173,0.156,0.255,0.243,0.238,0.140,0.084,-,CALM,No
2020/12/06,17:30,0.174,0.157,0.255,0.241,0.238,0.140,0.084,west,0.6,No
2020/12/06,17:40,0.175,0.158,0.256,0.242,0.238,0.140,0.084,-,CALM,No
2020/12/06,17:50,0.175,0.157,0.254,0.242,0.239,0.140,0.083,west-southwest,1.0,No
2020/12/06,18:00,0.175,0.156,0.256,0.242,0.237,0.139,0.085,-,CALM,No
2020/12/06,18:10,0.175,0.157,0.255,0.242,0.237,0.139,0.085,west-southwest,1.1,No
2020/12/06,18:20,0.175,0.157,0.255,0.243,0.238,0.139,0.085,west,0.7,No
2020/12/06,18:30,0.177,0.157,0.256,0.243,0.238,0.139,0.084,west,0.8,No
2020/12/06,18:40,0.176,0.158,0.257,0.243,0.239,0.140,0.085,west,1.1,No
2020/12/06,18:50,0.175,0.157,0.255,0.242,0.238,0.140,0.085,west,0.6,No
2020/12/06,19:00,0.176,0.156,0.256,0.241,0.238,0.139,0.085,-,CALM,No
2020/12/06,19:10,0.175,0.158,0.256,0.242,0.238,0.139,0.085,west-southwest,0.7,No
2020/12/06,19:20,0.175,0.157,0.256,0.242,0.237,0.139,0.084,-,CALM,No
2020/12/06,19:30,0.175,0.158,0.257,0.243,0.238,0.140,0.086,south-southwest,1.0,No
2020/12/06,19:40,0.175,0.157,0.256,0.243,0.238,0.139,0.084,south-southwest,0.9,No
2020/12/06,19:50,0.176,0.157,0.255,0.241,0.237,0.140,0.085,south,0.8,No
2020/12/06,20:00,0.174,0.157,0.257,0.243,0.237,0.140,0.085,south,1.2,No
2020/12/06,20:10,0.175,0.158,0.256,0.242,0.237,0.139,0.084,south,1.2,No
2020/12/06,20:20,0.176,0.157,0.256,0.242,0.237,0.140,0.085,south,1.1,No
2020/12/06,20:30,0.176,0.157,0.255,0.242,0.238,0.140,0.084,south,1.7,No
2020/12/06,20:40,0.176,0.158,0.255,0.242,0.239,0.139,0.085,south,0.6,No
2020/12/06,20:50,0.176,0.157,0.256,0.243,0.238,0.140,0.084,south,1.8,No
2020/12/06,21:00,0.175,0.157,0.256,0.242,0.237,0.140,0.084,south-southeast,1.8,No
2020/12/06,21:10,0.175,0.157,0.256,0.242,0.238,0.140,0.084,south,1.6,No
2020/12/06,21:20,0.176,0.158,0.255,0.243,0.239,0.140,0.085,south-southeast,1.7,No
2020/12/06,21:30,0.175,0.158,0.256,0.242,0.239,0.140,0.085,south,2.3,No
2020/12/06,21:40,0.176,0.158,0.255,0.242,0.236,0.140,0.084,south,2.0,No
2020/12/06,21:50,0.176,0.158,0.257,0.242,0.238,0.140,0.085,south,2.3,No
2020/12/06,22:00,0.175,0.158,0.256,0.241,0.238,0.139,0.084,south-southwest,2.9,No
2020/12/06,22:10,0.174,0.158,0.255,0.242,0.238,0.139,0.085,south-southwest,1.7,No
2020/12/06,22:20,0.174,0.157,0.256,0.242,0.238,0.139,0.084,south-southwest,1.2,No
2020/12/06,22:30,0.175,0.157,0.257,0.243,0.239,0.140,0.085,south-southwest,0.9,No
2020/12/06,22:40,0.175,0.159,0.257,0.242,0.238,0.140,0.085,southwest,1.0,No
2020/12/06,22:50,0.174,0.158,0.256,0.243,0.237,0.140,0.085,west-southwest,2.0,No
2020/12/06,23:00,0.175,0.157,0.256,0.243,0.238,0.140,0.085,west-southwest,1.6,No
2020/12/06,23:10,0.175,0.158,0.257,0.241,0.238,0.141,0.085,west,3.1,No
2020/12/06,23:20,0.176,0.158,0.257,0.244,0.237,0.140,0.084,west,4.1,No
2020/12/06,23:30,0.176,0.158,0.255,0.242,0.238,0.140,0.085,west-southwest,3.7,No
2020/12/06,23:40,0.175,0.158,0.256,0.244,0.239,0.140,0.084,southwest,3.9,No
2020/12/06,23:50,0.176,0.159,0.255,0.242,0.238,0.140,0.085,west-southwest,3.1,No
